SCP
0 0 0 0 0 -0 0 0 0 0 0 0 0 0 0 0 0 0 0 0 0 1 1 1 1 1 1 1 0 0 0 0
0 0 0 0 0 0 0 0 0 0 0 0 0 0 0 0 0 0 0 0 0 1 1 2 1 1 1 1 0 0 0 0
0 0 0 0 0 0 0 0 0 0 0 0 0 0 0 0 0 0 0 0 1 1 1 1 1 1 0 0 1 1 0 0
0 0 0 0 0 0 0 0 0 0 0 0 0 0 0 0 0 0 0 1 1 1 1 1 1 1 1 1 1 0 0 0
0 0 0 0 -0 0 0 0 0 0 0 0 0 0 0 0 0 0 0 0 0 1 1 1 1 1 2 1 0 0 0 0
0 0 0 0 -0 0 0 0 0 0 0 0 0 0 0 0 0 0 0 0 0 0 0 1 1 1 1 1 0 0 0 0
0 0 0 0 0 0 0 0 0 0 0 0 0 0 0 0 0 0 0 0 0 0 0 0 0 0 1 0 0 0 0 0
0 0 0 0 0 0 0 0 0 0 0 0 0 0 0 0 0 0 0 0 0 0 0 0 0 0 0 0 0 0 0 0
0 0 0 -0 -0 0 0 0 0 0 0 0 0 0 0 0 0 0 0 0 0 0 0 0 0 0 0 0 0 0 0 0
0 0 0 -0 0 0 0 0 0 0 0 0 0 0 0 0 0 0 0 0 0 0 0 0 0 0 0 0 0 0 0 0
0 0 0 0 0 0 0 0 0 0 0 0 0 0 0 0 0 0 0 0 0 0 0 0 0 0 0 0 0 0 0 0
0 0 0 0 -0 0 -0 0 0 0 0 0 0 0 0 0 0 0 0 0 0 0 0 0 0 0 0 0 0 0 0 0
0 -0 -0 -0 -0 -0 -0 0 0 0 0 0 0 0 0 0 0 0 0 0 0 0 0 0 0 0 0 0 0 0 0 0
-0 0 0 0 0 0 -0 0 0 0 0 0 0 0 0 0 0 0 0 0 0 0 0 0 0 0 0 0 0 0 0 0
-0 -0 -0 0 -0 -0 -0 0 -0 0 0 0 0 0 0 0 0 0 0 0 0 0 0 0 0 0 0 0 0 0 0 0
-0 -0 0 -0 -0 0 0 0 0 0 0 0 0 0 0 0 0 0 0 0 0 0 0 0 0 0 0 0 0 0 0 0
-0 0 0 -0 0 -0 -0 0 0 0 0 0 0 0 0 0 0 0 0 0 0 0 0 0 0 0 0 0 0 0 0 0
0 0 0 0 -0 -0 0 -0 0 0 0 0 0 0 0 0 0 0 0 0 0 0 0 0 0 0 0 0 0 0 0 0
-0 0 -0 0 -0 0 -0 0 0 0 0 0 0 0 0 0 0 0 0 0 0 0 0 0 0 0 0 0 0 0 0 0
0 0 -0 0 0 0 0 0 0 0 0 0 0 0 0 0 0 0 0 0 0 0 0 0 0 0 0 0 0 0 0 0
Wind_Speed_500mb
6 6 9 9 11 9 25 23 22 12 9 19 17 24 27 24 32 24 16 8 11 17 17 18 21 24 29 32 34 31 31 34
5 19 16 11 24 27 11 17 20 22 14 13 10 31 29 29 26 19 18 12 16 20 20 21 22 29 32 31 31 33 38 40
8 13 13 13 28 18 8 9 5 12 7 11 41 25 36 34 27 25 28 21 23 24 22 24 29 31 30 29 28 30 35 40
9 13 11 12 19 12 20 7 17 17 27 20 32 36 38 27 31 33 26 21 26 24 26 24 28 30 30 33 31 29 29 33
9 23 18 3 30 24 18 19 3 32 15 18 48 41 39 32 34 33 21 21 27 24 21 28 30 28 30 35 33 28 31 34
9 13 31 8 43 47 20 21 20 40 17 15 57 47 40 38 28 17 19 23 25 25 25 30 30 26 29 33 25 26 30 35
13 14 22 46 9 49 29 20 19 22 24 24 46 52 51 46 33 33 37 30 30 31 33 28 21 29 32 25 25 29 33 36
28 22 21 47 19 42 15 31 13 6 22 21 55 65 59 47 40 46 42 40 38 35 24 20 23 31 26 25 31 33 33 33
46 51 52 50 54 56 15 11 37 24 38 42 60 66 55 41 36 38 46 48 40 31 22 20 29 30 25 26 32 32 28 36
66 70 58 40 63 33 32 36 44 29 36 50 63 63 51 45 49 42 47 52 45 33 24 25 34 27 19 18 22 31 40 45
66 68 66 70 48 46 36 53 37 29 48 56 60 53 46 44 45 46 52 49 38 28 23 28 28 21 18 20 21 26 31 33
55 57 64 39 50 29 50 52 55 48 51 53 58 54 57 60 57 57 55 49 36 25 24 29 23 20 24 25 28 29 28 28
30 45 47 45 32 19 55 58 51 56 51 52 56 57 62 74 70 66 54 44 31 23 21 22 23 22 24 24 24 27 27 26
27 28 53 23 44 28 62 61 54 56 54 55 59 62 67 71 67 67 56 45 29 20 15 16 13 20 22 25 24 24 28 28
30 24 25 15 34 24 62 64 60 57 53 60 65 66 67 73 72 65 55 40 24 14 11 7 9 15 23 25 24 19 24 28
33 33 16 22 25 37 60 49 54 48 49 58 59 67 68 78 70 58 47 29 18 13 6 4 8 18 22 19 20 22 27 29
40 38 13 17 29 44 43 23 31 53 62 60 41 47 56 74 66 55 39 24 18 12 2 2 8 14 14 21 25 25 28 28
43 36 10 28 34 43 20 15 40 53 60 47 30 39 65 77 67 54 34 23 17 9 4 3 6 13 20 24 22 23 24 21
39 34 16 19 27 25 22 11 14 29 37 31 43 74 79 74 61 46 32 22 17 10 4 2 8 15 19 25 26 20 13 15
40 25 15 14 11 11 14 14 9 33 32 26 56 71 81 72 59 44 28 23 16 11 4 5 9 15 22 28 23 15 7 12
Wind_Direction_500mb
155 181 213 220 251 246 299 251 214 129 134 140 164 170 171 181 184 190 208 235 254 232 225 238 267 286 293 295 291 282 272 280
190 236 257 229 273 242 270 306 240 151 75 96 170 166 180 175 177 199 201 206 225 228 240 255 287 301 297 295 294 282 275 278
263 254 268 274 278 257 300 316 58 119 144 124 159 183 171 173 186 197 189 196 212 234 258 289 299 301 304 308 300 287 278 277
263 269 272 311 309 304 322 251 131 111 136 165 190 190 170 185 194 203 211 214 227 252 265 267 284 289 294 306 307 299 290 287
261 286 299 183 276 282 265 280 284 164 140 183 181 195 189 201 199 206 213 229 238 261 253 262 272 280 292 301 299 297 300 298
242 280 287 288 316 319 271 253 270 173 168 185 196 195 192 197 209 216 225 239 243 239 235 240 256 277 293 298 294 293 294 300
242 231 261 292 298 296 309 313 230 225 206 237 193 187 187 193 207 220 222 227 230 226 229 242 266 290 299 282 282 283 290 296
240 255 265 277 253 285 299 316 312 248 212 197 180 188 191 199 206 212 220 218 222 224 231 254 295 311 296 275 272 280 287 293
265 261 264 272 285 282 277 291 287 200 180 179 183 189 202 214 213 217 217 217 215 215 228 276 309 317 313 292 277 279 283 289
258 267 271 268 273 268 260 279 288 253 205 189 189 196 206 203 209 219 205 205 209 225 257 299 316 320 327 324 301 288 283 284
255 264 269 272 268 260 257 281 281 228 196 197 203 206 207 206 207 213 206 208 218 238 278 302 313 329 325 326 315 305 298 280
269 272 269 274 273 253 275 282 285 212 203 205 206 208 203 203 205 211 210 217 225 246 279 300 325 332 326 318 313 315 309 292
271 274 267 279 277 253 275 278 271 209 211 207 207 204 213 211 212 219 215 218 223 251 277 309 326 324 319 317 321 322 321 289
261 262 270 235 269 276 281 274 248 218 219 214 214 215 221 213 214 209 215 214 225 255 285 311 312 314 307 311 310 316 321 311
273 256 266 215 271 271 282 268 242 225 226 236 235 223 216 212 208 207 215 211 232 238 273 311 307 307 305 306 305 307 328 337
256 252 266 275 267 266 263 251 222 221 242 241 245 235 214 200 201 204 207 211 226 228 265 314 306 308 312 314 315 302 313 328
260 263 268 260 266 267 268 248 226 229 242 248 252 236 218 196 194 199 200 205 206 219 216 50 324 324 320 321 312 305 307 313
273 266 244 274 284 267 262 235 228 235 241 245 220 193 186 186 193 200 194 196 198 191 134 41 335 331 326 329 325 315 305 301
255 282 259 268 282 275 285 266 242 256 259 233 206 176 176 185 190 191 184 191 181 173 131 137 360 338 337 326 327 321 303 300
246 264 258 146 267 287 246 267 286 299 306 218 191 186 181 183 185 179 181 174 174 164 182 148 11 352 355 348 3 354 331 328
Wind_Speed_850mb
6 6 9 9 11 9 25 23 22 12 9 19 17 24 27 24 32 24 16 8 11 17 17 18 21 24 29 32 34 31 31 34
5 19 16 11 24 27 11 17 20 22 14 13 10 31 29 29 26 19 18 12 16 20 20 21 22 29 32 31 31 33 38 40
8 13 13 13 28 18 8 9 5 12 7 11 41 25 36 34 27 25 28 21 23 24 22 24 29 31 30 29 28 30 35 40
9 13 11 12 19 12 20 7 17 17 27 20 32 36 38 27 31 33 26 21 26 24 26 24 28 30 30 33 31 29 29 33
9 23 18 3 30 24 18 19 3 32 15 18 48 41 39 32 34 33 21 21 27 24 21 28 30 28 30 35 33 28 31 34
9 13 31 8 43 47 20 21 20 40 17 15 57 47 40 38 28 17 19 23 25 25 25 30 30 26 29 33 25 26 30 35
13 14 22 46 9 49 29 20 19 22 24 24 46 52 51 46 33 33 37 30 30 31 33 28 21 29 32 25 25 29 33 36
28 22 21 47 19 42 15 31 13 6 22 21 55 65 59 47 40 46 42 40 38 35 24 20 23 31 26 25 31 33 33 33
46 51 52 50 54 56 15 11 37 24 38 42 60 66 55 41 36 38 46 48 40 31 22 20 29 30 25 26 32 32 28 36
66 70 58 40 63 33 32 36 44 29 36 50 63 63 51 45 49 42 47 52 45 33 24 25 34 27 19 18 22 31 40 45
66 68 66 70 48 46 36 53 37 29 48 56 60 53 46 44 45 46 52 49 38 28 23 28 28 21 18 20 21 26 31 33
55 57 64 39 50 29 50 52 55 48 51 53 58 54 57 60 57 57 55 49 36 25 24 29 23 20 24 25 28 29 28 28
30 45 47 45 32 19 55 58 51 56 51 52 56 57 62 74 70 66 54 44 31 23 21 22 23 22 24 24 24 27 27 26
27 28 53 23 44 28 62 61 54 56 54 55 59 62 67 71 67 67 56 45 29 20 15 16 13 20 22 25 24 24 28 28
30 24 25 15 34 24 62 64 60 57 53 60 65 66 67 73 72 65 55 40 24 14 11 7 9 15 23 25 24 19 24 28
33 33 16 22 25 37 60 49 54 48 49 58 59 67 68 78 70 58 47 29 18 13 6 4 8 18 22 19 20 22 27 29
40 38 13 17 29 44 43 23 31 53 62 60 41 47 56 74 66 55 39 24 18 12 2 2 8 14 14 21 25 25 28 28
43 36 10 28 34 43 20 15 40 53 60 47 30 39 65 77 67 54 34 23 17 9 4 3 6 13 20 24 22 23 24 21
39 34 16 19 27 25 22 11 14 29 37 31 43 74 79 74 61 46 32 22 17 10 4 2 8 15 19 25 26 20 13 15
40 25 15 14 11 11 14 14 9 33 32 26 56 71 81 72 59 44 28 23 16 11 4 5 9 15 22 28 23 15 7 12
Wind_Direction_850mb
155 181 213 220 251 246 299 251 214 129 134 140 164 170 171 181 184 190 208 235 254 232 225 238 267 286 293 295 291 282 272 280
190 236 257 229 273 242 270 306 240 151 75 96 170 166 180 175 177 199 201 206 225 228 240 255 287 301 297 295 294 282 275 278
263 254 268 274 278 257 300 316 58 119 144 124 159 183 171 173 186 197 189 196 212 234 258 289 299 301 304 308 300 287 278 277
263 269 272 311 309 304 322 251 131 111 136 165 190 190 170 185 194 203 211 214 227 252 265 267 284 289 294 306 307 299 290 287
261 286 299 183 276 282 265 280 284 164 140 183 181 195 189 201 199 206 213 229 238 261 253 262 272 280 292 301 299 297 300 298
242 280 287 288 316 319 271 253 270 173 168 185 196 195 192 197 209 216 225 239 243 239 235 240 256 277 293 298 294 293 294 300
242 231 261 292 298 296 309 313 230 225 206 237 193 187 187 193 207 220 222 227 230 226 229 242 266 290 299 282 282 283 290 296
240 255 265 277 253 285 299 316 312 248 212 197 180 188 191 199 206 212 220 218 222 224 231 254 295 311 296 275 272 280 287 293
265 261 264 272 285 282 277 291 287 200 180 179 183 189 202 214 213 217 217 217 215 215 228 276 309 317 313 292 277 279 283 289
258 267 271 268 273 268 260 279 288 253 205 189 189 196 206 203 209 219 205 205 209 225 257 299 316 320 327 324 301 288 283 284
255 264 269 272 268 260 257 281 281 228 196 197 203 206 207 206 207 213 206 208 218 238 278 302 313 329 325 326 315 305 298 280
269 272 269 274 273 253 275 282 285 212 203 205 206 208 203 203 205 211 210 217 225 246 279 300 325 332 326 318 313 315 309 292
271 274 267 279 277 253 275 278 271 209 211 207 207 204 213 211 212 219 215 218 223 251 277 309 326 324 319 317 321 322 321 289
261 262 270 235 269 276 281 274 248 218 219 214 214 215 221 213 214 209 215 214 225 255 285 311 312 314 307 311 310 316 321 311
273 256 266 215 271 271 282 268 242 225 226 236 235 223 216 212 208 207 215 211 232 238 273 311 307 307 305 306 305 307 328 337
256 252 266 275 267 266 263 251 222 221 242 241 245 235 214 200 201 204 207 211 226 228 265 314 306 308 312 314 315 302 313 328
260 263 268 260 266 267 268 248 226 229 242 248 252 236 218 196 194 199 200 205 206 219 216 50 324 324 320 321 312 305 307 313
273 266 244 274 284 267 262 235 228 235 241 245 220 193 186 186 193 200 194 196 198 191 134 41 335 331 326 329 325 315 305 301
255 282 259 268 282 275 285 266 242 256 259 233 206 176 176 185 190 191 184 191 181 173 131 137 360 338 337 326 327 321 303 300
246 264 258 146 267 287 246 267 286 299 306 218 191 186 181 183 185 179 181 174 174 164 182 148 11 352 355 348 3 354 331 328